,

(GMT )
Alderney

Weather History for EGJA - November, 2012

Change the Weather History Date:

Tuesday, November 27, 2012

  Actual Average Record
Temperature  
Mean Temperature 46 °F -  
Max Temperature 48 °F 51 °F 59 °F (2011)
Min Temperature 44 °F 46 °F 32 °F (2010)
Degree Days  
Heating Degree Days 19    
Moisture  
Dew Point 42 °F    
Average Humidity 83    
Maximum Humidity 93    
Minimum Humidity 76    
Precipitation  
Precipitation 0.00 in - - ()
Sea Level Pressure  
Sea Level Pressure 29.65 in    
Wind  
Wind Speed 16 mph ()    
Max Wind Speed 26 mph    
Max Gust Speed 39 mph    
Visibility 6.2 miles    
Events Rain    
Averages and records for this station are not official NWS values.
T = Trace of Precipitation, MM = Missing Value Source: Averaged Metar Reports

Daily Weather History Graph

Daily Weather History Graph

Search for Another Location

Airport or City:

Trip Planner

Search our weather history database for the weather conditions in past years. The results will help you decide how hot, cold, wet, or windy it might be!

Date:

Astronomy

Nov. 27, 2012 Rise Set
Actual Time 7:39 AM GMT 4:13 PM GMT
Civil Twilight 7:02 AM GMT 4:50 PM GMT
Nautical Twilight 6:22 AM GMT 5:30 PM GMT
Astronomical Twilight 5:43 AM GMT 6:08 PM GMT
Moon 3:37 PM GMT (11/27) 6:28 AM GMT (11/27)
Length of Visible Light 9h 47m
Length of Day
8h 34m
Waxing Gibbous, 99% of the Moon is Illuminated
Nov 27
Waxing Gibbous
Nov 28
Full
Dec 6
Last Quarter
Dec 13
New
Dec 20
First Quarter

Hourly Weather History & Observations

Time (GMT) Temp. Windchill Dew Point Humidity Pressure Visibility Wind Dir Wind Speed Gust Speed Precip Events Conditions
6:50 AM 44.6 °F 36.9 °F 41.0 °F 87% 29.56 in 6.2 mi NNW 18.4 mph - N/A   Mostly Cloudy
7:20 AM 44.6 °F 37.8 °F 42.8 °F 93% 29.56 in 6.2 mi NNW 15.0 mph - N/A Rain Light Rain
7:50 AM 44.6 °F 37.8 °F 41.0 °F 87% 29.59 in 6.2 mi North 15.0 mph - N/A Rain Light Rain
8:20 AM 46.4 °F 39.8 °F 41.0 °F 81% 29.59 in 6.2 mi North 16.1 mph - N/A   Mostly Cloudy
8:50 AM 46.4 °F 40.1 °F 41.0 °F 81% 29.59 in 6.2 mi North 15.0 mph - N/A   Mostly Cloudy
9:20 AM 46.4 °F 40.1 °F 41.0 °F 81% 29.62 in 6.2 mi North 15.0 mph - N/A Rain Light Rain
9:50 AM 46.4 °F 40.1 °F 42.8 °F 87% 29.62 in 6.2 mi North 15.0 mph - N/A   Mostly Cloudy
10:20 AM 46.4 °F 40.4 °F 42.8 °F 87% 29.62 in 6.2 mi North 13.8 mph - N/A   Mostly Cloudy
10:50 AM 46.4 °F 40.7 °F 42.8 °F 87% 29.65 in 6.2 mi North 12.7 mph - N/A   Mostly Cloudy
11:20 AM 48.2 °F - 42.8 °F 82% 29.65 in 6.2 mi North 13.8 mph - N/A Rain Light Rain Showers
11:50 AM 48.2 °F - 42.8 °F 82% 29.65 in 6.2 mi North 17.3 mph - N/A   Mostly Cloudy
12:20 PM 48.2 °F - 44.6 °F 87% 29.65 in 6.2 mi North 15.0 mph - N/A   Mostly Cloudy
12:50 PM 48.2 °F - 42.8 °F 82% 29.65 in 6.2 mi North 17.3 mph - N/A Rain Light Rain Showers
1:20 PM 48.2 °F - 42.8 °F 82% 29.65 in 6.2 mi North 18.4 mph - N/A   Mostly Cloudy
1:50 PM 48.2 °F - 44.6 °F 87% 29.65 in 6.2 mi NNE 24.2 mph - N/A   Mostly Cloudy
2:20 PM 48.2 °F - 44.6 °F 87% 29.65 in 6.2 mi North 20.7 mph 33.4 mph N/A   Mostly Cloudy
2:50 PM 48.2 °F - 42.8 °F 82% 29.65 in 6.2 mi NNE 25.3 mph 38.0 mph N/A   Mostly Cloudy
3:20 PM 48.2 °F - 42.8 °F 82% 29.68 in 6.2 mi North 25.3 mph - N/A   Mostly Cloudy
3:50 PM 48.2 °F - 42.8 °F 82% 29.68 in 6.2 mi North 25.3 mph 38.0 mph N/A   Mostly Cloudy
4:20 PM 48.2 °F - 42.8 °F 82% 29.71 in 6.2 mi NNE 23.0 mph 39.1 mph N/A   Mostly Cloudy
4:50 PM 46.4 °F 38.1 °F 42.8 °F 87% 29.71 in 6.2 mi NNE 24.2 mph 36.8 mph N/A Rain Light Rain Showers
5:20 PM 48.2 °F - 41.0 °F 76% 29.71 in 6.2 mi NNE 25.3 mph 39.1 mph N/A Rain Light Rain Showers
5:50 PM 48.2 °F - 41.0 °F 76% 29.74 in 6.2 mi North 24.2 mph 38.0 mph N/A   Mostly Cloudy
6:20 PM 48.2 °F - 41.0 °F 76% 29.74 in 6.2 mi North 26.5 mph 38.0 mph N/A   Mostly Cloudy